Time,TemperatureF,DewpointF,PressureIn,WindDirection,WindDirectionDegrees,WindSpeedMPH,WindSpeedGustMPH,Humidity,HourlyPrecipIn,Conditions,Clouds,dailyrainin,SoftwareType,DateUTC
2013-02-19 00:00:00,49.7,38.4,30.32,SW,221,7.0,12.0,65,0.00,,SKC,0.00,VWS V13.00,2013-02-19 05:00:00,
2013-02-19 00:01:00,49.7,38.8,30.32,South,183,4.0,12.0,66,0.00,,SKC,0.00,VWS V13.00,2013-02-19 05:01:00,
2013-02-19 00:06:00,49.8,38.9,30.32,SW,225,9.0,12.0,66,0.00,,SKC,0.00,VWS V13.00,2013-02-19 05:06:00,
2013-02-19 00:11:00,49.9,39.0,30.32,SW,219,5.0,14.0,66,0.00,,SKC,0.00,VWS V13.00,2013-02-19 05:11:00,
2013-02-19 00:16:00,50.0,39.1,30.31,SW,220,5.0,11.0,66,0.00,,SKC,0.00,VWS V13.00,2013-02-19 05:16:00,
2013-02-19 00:21:00,50.1,39.2,30.31,SW,227,8.0,10.0,66,0.00,,SKC,0.00,VWS V13.00,2013-02-19 05:21:00,
2013-02-19 00:26:00,50.1,39.2,30.32,SSW,213,7.0,11.0,66,0.00,,SKC,0.00,VWS V13.00,2013-02-19 05:26:00,
2013-02-19 00:31:00,50.0,39.1,30.32,SW,221,4.0,9.0,66,0.00,,SKC,0.00,VWS V13.00,2013-02-19 05:31:00,
2013-02-19 00:36:00,50.0,39.5,30.31,SSW,211,7.0,10.0,67,0.00,,SKC,0.00,VWS V13.00,2013-02-19 05:36:00,
2013-02-19 00:41:00,50.1,39.6,30.31,WSW,245,5.0,14.0,67,0.00,,SKC,0.00,VWS V13.00,2013-02-19 05:41:00,
2013-02-19 00:46:00,50.1,39.6,30.31,SW,227,4.0,10.0,67,0.00,,SKC,0.00,VWS V13.00,2013-02-19 05:46:00,
2013-02-19 00:51:00,50.1,39.6,30.32,SW,229,7.0,9.0,67,0.00,,SKC,0.00,VWS V13.00,2013-02-19 05:51:00,
2013-02-19 00:56:00,50.1,39.6,30.31,SSW,192,4.0,10.0,67,0.00,,SKC,0.00,VWS V13.00,2013-02-19 05:56:00,
2013-02-19 01:01:00,50.0,39.5,30.32,SW,214,2.0,8.0,67,0.00,,SKC,0.00,VWS V13.00,2013-02-19 06:01:00,
2013-02-19 01:06:00,50.0,39.5,30.31,SW,225,5.0,8.0,67,0.00,,SKC,0.00,VWS V13.00,2013-02-19 06:06:00,
2013-02-19 01:11:00,50.0,39.5,30.31,SW,233,6.0,8.0,67,0.00,,SKC,0.00,VWS V13.00,2013-02-19 06:11:00,
2013-02-19 01:16:00,49.9,39.4,30.31,SSW,213,3.0,7.0,67,0.00,,SKC,0.00,VWS V13.00,2013-02-19 06:16:00,
2013-02-19 01:21:00,49.8,39.7,30.31,SW,226,1.0,8.0,68,0.00,,SKC,0.00,VWS V13.00,2013-02-19 06:21:00,
2013-02-19 01:26:00,49.7,39.6,30.30,SSW,207,4.0,6.0,68,0.00,,SKC,0.00,VWS V13.00,2013-02-19 06:26:00,
2013-02-19 01:31:00,49.6,39.5,30.30,South,189,5.0,6.0,68,0.00,,SKC,0.00,VWS V13.00,2013-02-19 06:31:00,
2013-02-19 01:36:00,49.6,39.5,30.30,SSW,199,2.0,6.0,68,0.00,,SKC,0.00,VWS V13.00,2013-02-19 06:36:00,
2013-02-19 01:41:00,49.7,39.6,30.30,South,180,3.0,7.0,68,0.00,,SKC,0.00,VWS V13.00,2013-02-19 06:41:00,
2013-02-19 01:46:00,49.7,39.6,30.29,SSW,200,3.0,6.0,68,0.00,,SKC,0.00,VWS V13.00,2013-02-19 06:46:00,
2013-02-19 01:51:00,49.8,40.0,30.29,SSW,207,2.0,6.0,69,0.00,,SKC,0.00,VWS V13.00,2013-02-19 06:51:00,
2013-02-19 01:56:00,49.8,40.0,30.29,SSW,205,3.0,6.0,69,0.00,,SKC,0.00,VWS V13.00,2013-02-19 06:56:00,
2013-02-19 02:01:00,49.8,40.0,30.29,South,177,1.0,5.0,69,0.00,,SKC,0.00,VWS V13.00,2013-02-19 07:01:00,
2013-02-19 02:06:00,49.7,40.0,30.29,SSW,193,2.0,4.0,69,0.00,,SKC,0.00,VWS V13.00,2013-02-19 07:06:00,
2013-02-19 02:11:00,49.7,40.0,30.28,SW,221,1.0,6.0,69,0.00,,SKC,0.00,VWS V13.00,2013-02-19 07:11:00,
2013-02-19 02:16:00,49.7,40.0,30.28,SSW,200,2.0,6.0,69,0.00,,SKC,0.00,VWS V13.00,2013-02-19 07:16:00,
2013-02-19 02:21:00,49.6,39.9,30.28,SSW,203,3.0,6.0,69,0.00,,SKC,0.00,VWS V13.00,2013-02-19 07:21:00,
2013-02-19 02:26:00,49.5,39.8,30.28,SSW,202,2.0,4.0,69,0.00,,SKC,0.00,VWS V13.00,2013-02-19 07:26:00,
2013-02-19 02:31:00,49.3,39.6,30.27,SSW,200,0.0,4.0,69,0.00,,SKC,0.00,VWS V13.00,2013-02-19 07:31:00,
2013-02-19 02:36:00,49.0,39.3,30.27,SSW,196,2.0,4.0,69,0.00,,SKC,0.00,VWS V13.00,2013-02-19 07:36:00,
2013-02-19 02:41:00,48.6,39.3,30.27,SSW,213,1.0,4.0,70,0.00,,SKC,0.00,VWS V13.00,2013-02-19 07:41:00,
2013-02-19 02:46:00,48.2,38.9,30.26,South,190,3.0,5.0,70,0.00,,SKC,0.00,VWS V13.00,2013-02-19 07:46:00,
2013-02-19 02:51:00,47.9,38.6,30.26,SSW,194,2.0,4.0,70,0.00,,SKC,0.00,VWS V13.00,2013-02-19 07:51:00,
2013-02-19 02:56:00,47.7,38.4,30.26,South,187,0.0,2.0,70,0.00,,SKC,0.00,VWS V13.00,2013-02-19 07:56:00,
2013-02-19 03:01:00,47.4,38.1,30.25,South,186,1.0,2.0,70,0.00,,SKC,0.00,VWS V13.00,2013-02-19 08:01:00,
2013-02-19 03:06:00,46.9,37.6,30.26,South,186,0.0,2.0,70,0.00,,SKC,0.00,VWS V13.00,2013-02-19 08:06:00,
2013-02-19 03:11:00,46.3,37.1,30.25,South,175,0.0,2.0,70,0.00,,SKC,0.00,VWS V13.00,2013-02-19 08:11:00,
2013-02-19 03:16:00,45.8,36.6,30.25,South,175,0.0,4.0,70,0.00,,SKC,0.00,VWS V13.00,2013-02-19 08:16:00,
2013-02-19 03:21:00,45.3,36.1,30.25,South,175,0.0,1.0,70,0.00,,SKC,0.00,VWS V13.00,2013-02-19 08:21:00,
2013-02-19 03:26:00,44.7,35.5,30.25,South,175,0.0,1.0,70,0.00,,SKC,0.00,VWS V13.00,2013-02-19 08:26:00,
2013-02-19 03:31:00,44.2,35.0,30.25,South,175,0.0,1.0,70,0.00,,SKC,0.00,VWS V13.00,2013-02-19 08:31:00,
2013-02-19 03:36:00,43.8,34.7,30.24,South,175,0.0,2.0,70,0.00,,SKC,0.00,VWS V13.00,2013-02-19 08:36:00,
2013-02-19 03:41:00,43.3,34.2,30.24,South,173,0.0,2.0,70,0.00,,SKC,0.00,VWS V13.00,2013-02-19 08:41:00,
2013-02-19 03:46:00,43.0,34.2,30.24,South,173,0.0,0.0,71,0.00,,SKC,0.00,VWS V13.00,2013-02-19 08:46:00,
2013-02-19 03:51:00,42.7,34.0,30.24,South,172,1.0,2.0,71,0.00,,SKC,0.00,VWS V13.00,2013-02-19 08:51:00,
2013-02-19 03:56:00,42.3,33.6,30.23,SSE,165,0.0,2.0,71,0.00,,SKC,0.00,VWS V13.00,2013-02-19 08:56:00,
2013-02-19 04:01:00,42.0,33.3,30.24,SSE,165,1.0,2.0,71,0.00,,SKC,0.00,VWS V13.00,2013-02-19 09:01:00,
2013-02-19 04:06:00,41.9,33.2,30.23,SSE,165,0.0,2.0,71,0.00,,SKC,0.00,VWS V13.00,2013-02-19 09:06:00,
2013-02-19 04:11:00,41.6,32.9,30.23,SSE,165,0.0,1.0,71,0.00,,SKC,0.00,VWS V13.00,2013-02-19 09:11:00,
2013-02-19 04:16:00,41.5,32.8,30.23,SSE,165,0.0,0.0,71,0.00,,SKC,0.00,VWS V13.00,2013-02-19 09:16:00,
2013-02-19 04:21:00,41.3,32.6,30.23,SSE,165,0.0,0.0,71,0.00,,SKC,0.00,VWS V13.00,2013-02-19 09:21:00,
2013-02-19 04:26:00,41.1,32.4,30.23,SSE,165,0.0,0.0,71,0.00,,SKC,0.00,VWS V13.00,2013-02-19 09:26:00,
2013-02-19 04:31:00,41.0,32.7,30.22,SSE,165,0.0,0.0,72,0.00,,SKC,0.00,VWS V13.00,2013-02-19 09:31:00,
2013-02-19 04:36:00,40.9,32.6,30.22,SSE,165,0.0,0.0,72,0.00,,SKC,0.00,VWS V13.00,2013-02-19 09:36:00,
2013-02-19 04:41:00,40.7,32.4,30.22,SSE,165,0.0,0.0,72,0.00,,SKC,0.00,VWS V13.00,2013-02-19 09:41:00,
2013-02-19 04:46:00,40.5,32.2,30.22,SSE,165,0.0,0.0,72,0.00,,SKC,0.00,VWS V13.00,2013-02-19 09:46:00,
2013-02-19 04:51:00,40.3,32.0,30.22,SSE,165,1.0,1.0,72,0.00,,SKC,0.00,VWS V13.00,2013-02-19 09:51:00,
2013-02-19 04:56:00,40.1,31.8,30.22,SSE,161,1.0,4.0,72,0.00,,SKC,0.00,VWS V13.00,2013-02-19 09:56:00,
2013-02-19 05:01:00,40.0,31.7,30.22,SE,146,4.0,4.0,72,0.00,,SKC,0.00,VWS V13.00,2013-02-19 10:01:00,
2013-02-19 05:06:00,40.0,31.7,30.21,ESE,117,2.0,4.0,72,0.00,,SKC,0.00,VWS V13.00,2013-02-19 10:06:00,
2013-02-19 05:11:00,40.1,31.8,30.21,ESE,122,1.0,4.0,72,0.00,,SKC,0.00,VWS V13.00,2013-02-19 10:11:00,
2013-02-19 05:16:00,40.4,32.4,30.21,ESE,122,1.0,4.0,73,0.00,,SKC,0.00,VWS V13.00,2013-02-19 10:16:00,
2013-02-19 05:21:00,40.4,32.4,30.21,ESE,122,0.0,1.0,73,0.00,,SKC,0.00,VWS V13.00,2013-02-19 10:21:00,
2013-02-19 05:26:00,40.4,32.4,30.21,ESE,122,0.0,0.0,73,0.00,,SKC,0.00,VWS V13.00,2013-02-19 10:26:00,
2013-02-19 05:31:00,40.3,32.3,30.21,ESE,122,0.0,0.0,73,0.00,,SKC,0.00,VWS V13.00,2013-02-19 10:31:00,
2013-02-19 05:36:00,40.3,32.3,30.21,ESE,122,1.0,2.0,73,0.00,,SKC,0.00,VWS V13.00,2013-02-19 10:36:00,
2013-02-19 05:41:00,40.2,32.2,30.21,ESE,122,0.0,1.0,73,0.00,,SKC,0.00,VWS V13.00,2013-02-19 10:41:00,
2013-02-19 05:46:00,40.2,32.2,30.21,ESE,122,2.0,2.0,73,0.00,,SKC,0.00,VWS V13.00,2013-02-19 10:46:00,
2013-02-19 05:51:00,40.2,32.2,30.20,ESE,122,1.0,2.0,73,0.00,,SKC,0.00,VWS V13.00,2013-02-19 10:51:00,
2013-02-19 05:56:00,40.2,32.2,30.20,ESE,122,1.0,2.0,73,0.00,,SKC,0.00,VWS V13.00,2013-02-19 10:56:00,
2013-02-19 06:01:00,40.2,32.2,30.20,ESE,121,0.0,4.0,73,0.00,,SKC,0.00,VWS V13.00,2013-02-19 11:01:00,
2013-02-19 06:06:00,40.4,32.8,30.20,ESE,121,1.0,2.0,74,0.00,,SKC,0.00,VWS V13.00,2013-02-19 11:06:00,
2013-02-19 06:11:00,40.5,32.5,30.20,ESE,107,4.0,4.0,73,0.00,,SKC,0.00,VWS V13.00,2013-02-19 11:11:00,
2013-02-19 06:16:00,40.7,32.7,30.20,ESE,111,2.0,5.0,73,0.00,,SKC,0.00,VWS V13.00,2013-02-19 11:16:00,
2013-02-19 06:21:00,41.1,33.5,30.19,ESE,113,4.0,5.0,74,0.00,,SKC,0.00,VWS V13.00,2013-02-19 11:21:00,
2013-02-19 06:26:00,41.8,34.1,30.19,ESE,119,5.0,5.0,74,0.00,,SKC,0.00,VWS V13.00,2013-02-19 11:26:00,
2013-02-19 06:31:00,42.1,34.4,30.19,ESE,123,4.0,5.0,74,0.00,,SKC,0.00,VWS V13.00,2013-02-19 11:31:00,
2013-02-19 06:36:00,43.0,35.3,30.18,ESE,105,4.0,6.0,74,0.00,,SKC,0.00,VWS V13.00,2013-02-19 11:36:00,
2013-02-19 06:41:00,45.1,37.7,30.18,East,101,4.0,8.0,75,0.00,,SKC,0.00,VWS V13.00,2013-02-19 11:41:00,
2013-02-19 06:46:00,47.0,39.5,30.17,ESE,111,7.0,11.0,75,0.00,,SKC,0.00,VWS V13.00,2013-02-19 11:46:00,
2013-02-19 06:51:00,48.0,40.5,30.17,ESE,105,5.0,11.0,75,0.00,,SKC,0.00,VWS V13.00,2013-02-19 11:51:00,
2013-02-19 06:56:00,48.7,41.1,30.17,East,96,5.0,11.0,75,0.00,,SKC,0.00,VWS V13.00,2013-02-19 11:56:00,
2013-02-19 07:01:00,49.2,41.6,30.18,ESE,120,5.0,8.0,75,0.00,,SKC,0.00,VWS V13.00,2013-02-19 12:01:00,
2013-02-19 07:06:00,49.7,42.1,30.18,ESE,119,2.0,8.0,75,0.00,,SKC,0.00,VWS V13.00,2013-02-19 12:06:00,
2013-02-19 07:11:00,50.0,42.4,30.17,ESE,115,4.0,8.0,75,0.00,,SKC,0.00,VWS V13.00,2013-02-19 12:11:00,
2013-02-19 07:16:00,50.3,43.0,30.18,SE,124,5.0,7.0,76,0.00,,SKC,0.00,VWS V13.00,2013-02-19 12:16:00,
2013-02-19 07:21:00,50.5,42.9,30.18,ESE,104,5.0,7.0,75,0.00,,SKC,0.00,VWS V13.00,2013-02-19 12:21:00,
2013-02-19 07:26:00,50.7,43.4,30.17,ESE,106,5.0,7.0,76,0.00,,SKC,0.00,VWS V13.00,2013-02-19 12:26:00,
2013-02-19 07:31:00,50.9,43.6,30.17,ESE,109,2.0,7.0,76,0.00,,SKC,0.00,VWS V13.00,2013-02-19 12:31:00,
2013-02-19 07:36:00,51.0,43.7,30.17,ESE,109,4.0,7.0,76,0.00,,SKC,0.00,VWS V13.00,2013-02-19 12:36:00,
2013-02-19 07:41:00,51.3,44.0,30.17,ESE,109,5.0,7.0,76,0.00,,SKC,0.00,VWS V13.00,2013-02-19 12:41:00,
2013-02-19 07:46:00,51.5,44.2,30.17,ESE,118,7.0,8.0,76,0.00,,SKC,0.00,VWS V13.00,2013-02-19 12:46:00,
2013-02-19 07:51:00,51.7,44.4,30.17,SE,125,9.0,9.0,76,0.00,,SKC,0.00,VWS V13.00,2013-02-19 12:51:00,
2013-02-19 07:56:00,52.0,44.7,30.17,ESE,123,5.0,9.0,76,0.00,,SKC,0.00,VWS V13.00,2013-02-19 12:56:00,
2013-02-19 08:01:00,52.3,45.0,30.18,ESE,123,6.0,7.0,76,0.00,,SKC,0.00,VWS V13.00,2013-02-19 13:01:00,
2013-02-19 08:06:00,52.6,45.3,30.18,ESE,123,5.0,6.0,76,0.00,,SKC,0.00,VWS V13.00,2013-02-19 13:06:00,
2013-02-19 08:11:00,53.1,45.8,30.18,ESE,120,4.0,7.0,76,0.00,,SKC,0.00,VWS V13.00,2013-02-19 13:11:00,
2013-02-19 08:16:00,53.5,46.1,30.18,SE,127,6.0,7.0,76,0.00,,SKC,0.00,VWS V13.00,2013-02-19 13:16:00,
2013-02-19 08:21:00,53.7,46.3,30.17,SE,125,4.0,7.0,76,0.00,,SKC,0.00,VWS V13.00,2013-02-19 13:21:00,
2013-02-19 08:26:00,53.7,46.3,30.17,ESE,121,0.0,5.0,76,0.00,,SKC,0.00,VWS V13.00,2013-02-19 13:26:00,
2013-02-19 08:31:00,54.1,46.7,30.17,SE,124,4.0,7.0,76,0.00,,SKC,0.00,VWS V13.00,2013-02-19 13:31:00,
2013-02-19 08:36:00,54.6,47.2,30.17,SE,126,5.0,8.0,76,0.00,,SKC,0.00,VWS V13.00,2013-02-19 13:36:00,
2013-02-19 08:41:00,55.1,47.7,30.17,SE,129,2.0,8.0,76,0.00,,SKC,0.00,VWS V13.00,2013-02-19 13:41:00,
2013-02-19 08:46:00,55.2,47.8,30.17,SE,142,2.0,7.0,76,0.00,,SKC,0.00,VWS V13.00,2013-02-19 13:46:00,
2013-02-19 08:51:00,55.4,48.0,30.17,SE,127,6.0,8.0,76,0.00,,SKC,0.00,VWS V13.00,2013-02-19 13:51:00,
2013-02-19 08:56:00,55.8,48.4,30.16,SE,136,6.0,10.0,76,0.00,,SKC,0.00,VWS V13.00,2013-02-19 13:56:00,
2013-02-19 09:01:00,55.7,48.3,30.16,SE,135,4.0,7.0,76,0.00,,SKC,0.00,VWS V13.00,2013-02-19 14:01:00,
2013-02-19 09:06:00,55.7,48.3,30.17,ESE,110,2.0,7.0,76,0.00,,SKC,0.00,VWS V13.00,2013-02-19 14:06:00,
2013-02-19 09:11:00,55.7,48.3,30.16,SE,144,2.0,6.0,76,0.00,,SKC,0.00,VWS V13.00,2013-02-19 14:11:00,
2013-02-19 09:16:00,55.7,48.3,30.17,ESE,116,2.0,6.0,76,0.00,,SKC,0.00,VWS V13.00,2013-02-19 14:16:00,
2013-02-19 09:21:00,55.8,48.4,30.16,SE,136,4.0,5.0,76,0.00,,SKC,0.00,VWS V13.00,2013-02-19 14:21:00,
2013-02-19 09:26:00,55.9,48.5,30.16,SE,141,2.0,7.0,76,0.00,,SKC,0.00,VWS V13.00,2013-02-19 14:26:00,
2013-02-19 09:31:00,56.4,48.9,30.16,SSE,150,6.0,7.0,76,0.00,,SKC,0.00,VWS V13.00,2013-02-19 14:31:00,
2013-02-19 09:36:00,57.2,49.7,30.15,SE,132,4.0,11.0,76,0.00,,SKC,0.00,VWS V13.00,2013-02-19 14:36:00,
2013-02-19 09:41:00,57.7,50.2,30.16,South,169,11.0,14.0,76,0.00,,SKC,0.00,VWS V13.00,2013-02-19 14:41:00,
2013-02-19 09:46:00,57.8,50.3,30.16,SSW,211,7.0,18.0,76,0.01,,SKC,0.01,VWS V13.00,2013-02-19 14:46:00,
2013-02-19 09:51:00,57.7,50.2,30.15,SW,215,11.0,12.0,76,0.01,,SKC,0.01,VWS V13.00,2013-02-19 14:51:00,
2013-02-19 09:56:00,57.5,50.0,30.15,SW,223,5.0,10.0,76,0.01,,SKC,0.01,VWS V13.00,2013-02-19 14:56:00,
2013-02-19 10:01:00,57.3,49.8,30.15,SSW,211,9.0,9.0,76,0.01,,SKC,0.01,VWS V13.00,2013-02-19 15:01:00,
2013-02-19 10:06:00,57.2,49.7,30.15,South,189,2.0,8.0,76,0.01,,SKC,0.01,VWS V13.00,2013-02-19 15:06:00,
2013-02-19 10:11:00,57.1,49.6,30.15,SSW,202,4.0,9.0,76,0.01,,SKC,0.01,VWS V13.00,2013-02-19 15:11:00,
2013-02-19 10:16:00,57.0,49.5,30.14,SSW,193,3.0,7.0,76,0.01,,SKC,0.01,VWS V13.00,2013-02-19 15:16:00,
2013-02-19 10:21:00,56.9,49.4,30.15,SSW,209,5.0,8.0,76,0.01,,SKC,0.01,VWS V13.00,2013-02-19 15:21:00,
2013-02-19 10:26:00,56.9,49.4,30.14,SW,217,3.0,10.0,76,0.01,,SKC,0.01,VWS V13.00,2013-02-19 15:26:00,
2013-02-19 10:31:00,56.9,49.4,30.16,West,272,6.0,12.0,76,0.01,,SKC,0.01,VWS V13.00,2013-02-19 15:31:00,
2013-02-19 10:36:00,56.9,49.4,30.14,WSW,238,4.0,12.0,76,0.01,,SKC,0.01,VWS V13.00,2013-02-19 15:36:00,
2013-02-19 10:41:00,57.1,49.6,30.14,SW,234,5.0,10.0,76,0.01,,SKC,0.01,VWS V13.00,2013-02-19 15:41:00,
2013-02-19 10:46:00,57.5,50.0,30.13,SSW,203,4.0,8.0,76,0.01,,SKC,0.01,VWS V13.00,2013-02-19 15:46:00,
2013-02-19 10:51:00,57.9,50.4,30.14,SW,217,6.0,9.0,76,0.00,,SKC,0.01,VWS V13.00,2013-02-19 15:51:00,
2013-02-19 10:56:00,58.0,50.5,30.14,SW,223,4.0,8.0,76,0.00,,SKC,0.01,VWS V13.00,2013-02-19 15:56:00,
2013-02-19 11:01:00,58.0,50.5,30.13,SW,215,5.0,10.0,76,0.00,,SKC,0.01,VWS V13.00,2013-02-19 16:01:00,
2013-02-19 11:06:00,58.0,50.5,30.13,SW,218,3.0,8.0,76,0.00,,SKC,0.01,VWS V13.00,2013-02-19 16:06:00,
2013-02-19 11:11:00,58.2,50.7,30.13,SW,223,2.0,8.0,76,0.00,,SKC,0.01,VWS V13.00,2013-02-19 16:11:00,
2013-02-19 11:16:00,58.3,50.8,30.12,SW,223,3.0,8.0,76,0.00,,SKC,0.01,VWS V13.00,2013-02-19 16:16:00,
2013-02-19 11:21:00,58.3,50.8,30.12,SW,236,1.0,10.0,76,0.00,,SKC,0.01,VWS V13.00,2013-02-19 16:21:00,
2013-02-19 11:26:00,58.2,50.7,30.12,WSW,239,7.0,10.0,76,0.00,,SKC,0.02,VWS V13.00,2013-02-19 16:26:00,
2013-02-19 11:31:00,58.0,50.5,30.11,WSW,242,4.0,8.0,76,0.01,,SKC,0.02,VWS V13.00,2013-02-19 16:31:00,
2013-02-19 11:36:00,57.9,50.4,30.11,SSW,207,8.0,10.0,76,0.01,,SKC,0.02,VWS V13.00,2013-02-19 16:36:00,
2013-02-19 11:41:00,57.7,50.2,30.10,West,269,4.0,10.0,76,0.01,,SKC,0.02,VWS V13.00,2013-02-19 16:41:00,
2013-02-19 11:46:00,57.6,50.1,30.10,SW,223,6.0,9.0,76,0.01,,SKC,0.02,VWS V13.00,2013-02-19 16:46:00,
2013-02-19 11:51:00,57.6,50.1,30.09,SSW,211,7.0,8.0,76,0.01,,SKC,0.02,VWS V13.00,2013-02-19 16:51:00,
2013-02-19 11:56:00,57.6,50.1,30.09,SSW,207,6.0,9.0,76,0.01,,SKC,0.02,VWS V13.00,2013-02-19 16:56:00,
2013-02-19 12:01:00,57.6,50.1,30.08,WSW,238,2.0,8.0,76,0.01,,SKC,0.02,VWS V13.00,2013-02-19 17:01:00,
2013-02-19 12:06:00,57.6,50.5,30.08,South,188,7.0,10.0,77,0.01,,SKC,0.02,VWS V13.00,2013-02-19 17:06:00,
2013-02-19 12:11:00,57.6,50.5,30.07,SSW,197,5.0,10.0,77,0.01,,SKC,0.02,VWS V13.00,2013-02-19 17:11:00,
2013-02-19 12:16:00,57.6,50.5,30.07,South,182,5.0,7.0,77,0.01,,SKC,0.02,VWS V13.00,2013-02-19 17:16:00,
2013-02-19 12:21:00,57.5,50.4,30.06,SSW,205,0.0,9.0,77,0.01,,SKC,0.02,VWS V13.00,2013-02-19 17:21:00,
2013-02-19 12:26:00,57.5,50.4,30.06,SW,219,5.0,9.0,77,0.01,,SKC,0.02,VWS V13.00,2013-02-19 17:26:00,
2013-02-19 12:31:00,57.5,50.4,30.06,South,190,3.0,10.0,77,0.00,,SKC,0.02,VWS V13.00,2013-02-19 17:31:00,
2013-02-19 12:36:00,57.5,50.4,30.05,South,172,5.0,9.0,77,0.00,,SKC,0.02,VWS V13.00,2013-02-19 17:36:00,
2013-02-19 12:41:00,57.4,50.3,30.05,SSW,194,6.0,8.0,77,0.00,,SKC,0.02,VWS V13.00,2013-02-19 17:41:00,
2013-02-19 12:46:00,57.4,50.3,30.04,SSW,196,4.0,10.0,77,0.00,,SKC,0.02,VWS V13.00,2013-02-19 17:46:00,
2013-02-19 12:51:00,57.3,50.2,30.04,SW,223,7.0,9.0,77,0.00,,SKC,0.02,VWS V13.00,2013-02-19 17:51:00,
2013-02-19 12:56:00,57.3,50.2,30.04,SSE,166,2.0,9.0,77,0.00,,SKC,0.02,VWS V13.00,2013-02-19 17:56:00,
2013-02-19 13:01:00,57.2,50.1,30.05,SSW,209,5.0,12.0,77,0.01,,SKC,0.03,VWS V13.00,2013-02-19 18:01:00,
2013-02-19 13:06:00,57.1,50.0,30.05,SSW,198,10.0,17.0,77,0.04,,SKC,0.06,VWS V13.00,2013-02-19 18:06:00,
2013-02-19 13:11:00,56.9,49.8,30.05,SW,227,5.0,15.0,77,0.05,,SKC,0.07,VWS V13.00,2013-02-19 18:11:00,
2013-02-19 13:16:00,56.8,49.7,30.05,SW,214,8.0,13.0,77,0.05,,SKC,0.07,VWS V13.00,2013-02-19 18:16:00,
2013-02-19 13:21:00,56.6,49.5,30.04,SSW,213,8.0,18.0,77,0.05,,SKC,0.07,VWS V13.00,2013-02-19 18:21:00,
2013-02-19 13:26:00,56.5,49.4,30.04,WSW,252,10.0,17.0,77,0.05,,SKC,0.07,VWS V13.00,2013-02-19 18:26:00,
2013-02-19 13:31:00,56.2,49.1,30.04,SW,215,10.0,17.0,77,0.06,,SKC,0.08,VWS V13.00,2013-02-19 18:31:00,
2013-02-19 13:36:00,55.9,49.2,30.04,WNW,288,6.0,17.0,78,0.07,,SKC,0.09,VWS V13.00,2013-02-19 18:36:00,
2013-02-19 13:41:00,55.6,48.9,30.04,WSW,242,11.0,17.0,78,0.08,,SKC,0.10,VWS V13.00,2013-02-19 18:41:00,
2013-02-19 13:46:00,55.4,48.7,30.03,SW,225,13.0,16.0,78,0.08,,SKC,0.11,VWS V13.00,2013-02-19 18:46:00,
2013-02-19 13:51:00,55.1,48.4,30.03,WSW,249,7.0,15.0,78,0.09,,SKC,0.11,VWS V13.00,2013-02-19 18:51:00,
2013-02-19 13:56:00,55.0,48.3,30.02,SSW,192,11.0,15.0,78,0.10,,SKC,0.12,VWS V13.00,2013-02-19 18:56:00,
2013-02-19 14:01:00,54.8,48.1,30.01,SSE,167,8.0,14.0,78,0.11,,SKC,0.14,VWS V13.00,2013-02-19 19:01:00,
2013-02-19 14:06:00,54.6,47.9,30.01,SSE,155,5.0,11.0,78,0.11,,SKC,0.14,VWS V13.00,2013-02-19 19:06:00,
2013-02-19 14:11:00,54.5,47.8,30.01,SSE,147,6.0,13.0,78,0.08,,SKC,0.14,VWS V13.00,2013-02-19 19:11:00,
2013-02-19 14:16:00,54.5,47.8,30.00,SSE,153,5.0,11.0,78,0.07,,SKC,0.14,VWS V13.00,2013-02-19 19:16:00,
2013-02-19 14:21:00,54.4,47.7,30.00,SSW,211,9.0,9.0,78,0.07,,SKC,0.14,VWS V13.00,2013-02-19 19:21:00,
2013-02-19 14:26:00,54.4,48.0,30.00,SSW,192,5.0,10.0,79,0.07,,SKC,0.14,VWS V13.00,2013-02-19 19:26:00,
2013-02-19 14:31:00,54.4,48.0,29.99,SSW,196,5.0,11.0,79,0.06,,SKC,0.14,VWS V13.00,2013-02-19 19:31:00,
2013-02-19 14:36:00,54.5,48.1,29.99,SSW,198,7.0,9.0,79,0.06,,SKC,0.14,VWS V13.00,2013-02-19 19:36:00,
2013-02-19 14:41:00,54.5,48.1,29.99,WSW,251,5.0,10.0,79,0.05,,SKC,0.14,VWS V13.00,2013-02-19 19:41:00,
2013-02-19 14:46:00,54.7,48.3,29.98,SSW,203,5.0,9.0,79,0.04,,SKC,0.14,VWS V13.00,2013-02-19 19:46:00,
2013-02-19 14:51:00,54.7,48.3,29.98,SW,224,6.0,13.0,79,0.03,,SKC,0.14,VWS V13.00,2013-02-19 19:51:00,
2013-02-19 14:56:00,54.7,48.3,29.97,SSW,196,6.0,11.0,79,0.02,,SKC,0.14,VWS V13.00,2013-02-19 19:56:00,
2013-02-19 15:01:00,54.7,48.3,29.97,SSW,194,4.0,10.0,79,0.01,,SKC,0.14,VWS V13.00,2013-02-19 20:01:00,
2013-02-19 15:06:00,54.7,48.3,29.97,SW,228,5.0,10.0,79,0.00,,SKC,0.14,VWS V13.00,2013-02-19 20:06:00,
2013-02-19 15:11:00,54.8,48.4,29.96,South,182,12.0,12.0,79,0.00,,SKC,0.14,VWS V13.00,2013-02-19 20:11:00,
2013-02-19 15:16:00,54.9,48.5,29.96,South,190,5.0,17.0,79,0.00,,SKC,0.14,VWS V13.00,2013-02-19 20:16:00,
2013-02-19 15:21:00,54.9,48.5,29.96,South,183,9.0,19.0,79,0.00,,SKC,0.14,VWS V13.00,2013-02-19 20:21:00,
2013-02-19 15:26:00,55.0,48.6,29.95,South,190,10.0,16.0,79,0.00,,SKC,0.14,VWS V13.00,2013-02-19 20:26:00,
2013-02-19 15:31:00,55.1,48.7,29.95,WSW,242,5.0,20.0,79,0.00,,SKC,0.14,VWS V13.00,2013-02-19 20:31:00,
2013-02-19 15:36:00,55.2,48.8,29.95,SW,232,4.0,17.0,79,0.00,,SKC,0.14,VWS V13.00,2013-02-19 20:36:00,
2013-02-19 15:41:00,55.3,48.9,29.95,SW,227,9.0,16.0,79,0.00,,SKC,0.14,VWS V13.00,2013-02-19 20:41:00,
2013-02-19 15:46:00,55.3,48.9,29.95,SSW,194,5.0,17.0,79,0.00,,SKC,0.14,VWS V13.00,2013-02-19 20:46:00,
2013-02-19 15:51:00,55.3,48.9,29.94,SW,219,11.0,15.0,79,0.00,,SKC,0.14,VWS V13.00,2013-02-19 20:51:00,
2013-02-19 15:56:00,55.3,48.9,29.95,SSW,212,12.0,15.0,79,0.00,,SKC,0.14,VWS V13.00,2013-02-19 20:56:00,
2013-02-19 16:01:00,55.3,48.9,29.95,SW,222,6.0,16.0,79,0.00,,SKC,0.14,VWS V13.00,2013-02-19 21:01:00,
2013-02-19 16:06:00,55.3,48.9,29.94,WSW,237,11.0,14.0,79,0.00,,SKC,0.14,VWS V13.00,2013-02-19 21:06:00,
2013-02-19 16:11:00,55.2,48.8,29.95,WSW,248,9.0,16.0,79,0.00,,SKC,0.14,VWS V13.00,2013-02-19 21:11:00,
2013-02-19 16:16:00,55.1,48.7,29.94,SW,221,8.0,16.0,79,0.00,,SKC,0.14,VWS V13.00,2013-02-19 21:16:00,
2013-02-19 16:21:00,55.1,48.7,29.94,SW,232,6.0,19.0,79,0.00,,SKC,0.14,VWS V13.00,2013-02-19 21:21:00,
2013-02-19 16:26:00,55.0,48.6,29.93,SW,236,9.0,14.0,79,0.00,,SKC,0.14,VWS V13.00,2013-02-19 21:26:00,
2013-02-19 16:31:00,55.0,48.6,29.93,SW,232,11.0,14.0,79,0.00,,SKC,0.14,VWS V13.00,2013-02-19 21:31:00,
2013-02-19 16:36:00,55.0,48.6,29.93,WSW,257,8.0,15.0,79,0.00,,SKC,0.14,VWS V13.00,2013-02-19 21:36:00,
2013-02-19 16:41:00,54.9,48.5,29.93,SW,219,7.0,12.0,79,0.00,,SKC,0.14,VWS V13.00,2013-02-19 21:41:00,
2013-02-19 16:46:00,54.9,48.5,29.93,SW,225,5.0,14.0,79,0.00,,SKC,0.14,VWS V13.00,2013-02-19 21:46:00,
2013-02-19 16:51:00,54.9,48.5,29.93,West,278,9.0,16.0,79,0.00,,SKC,0.14,VWS V13.00,2013-02-19 21:51:00,
2013-02-19 16:56:00,54.8,48.4,29.93,SSW,196,4.0,14.0,79,0.00,,SKC,0.14,VWS V13.00,2013-02-19 21:56:00,
2013-02-19 17:01:00,54.7,48.3,29.93,WSW,257,5.0,13.0,79,0.00,,SKC,0.14,VWS V13.00,2013-02-19 22:01:00,
2013-02-19 17:15:00,54.5,48.1,29.94,SSW,211,6.0,13.0,79,0.00,,SKC,0.14,VWS V13.00,2013-02-19 22:15:00,
2013-02-19 20:05:00,54.6,48.6,29.94,West,274,11.0,17.0,80,0.00,,SKC,0.14,VWS V13.00,2013-02-20 01:05:00,
2013-02-19 20:10:00,54.6,48.6,29.93,SSW,213,6.0,17.0,80,0.00,,SKC,0.14,VWS V13.00,2013-02-20 01:10:00,
2013-02-19 20:15:00,54.6,48.6,29.93,WSW,248,10.0,18.0,80,0.00,,SKC,0.14,VWS V13.00,2013-02-20 01:15:00,
2013-02-19 20:20:00,54.5,48.5,29.93,West,266,9.0,13.0,80,0.00,,SKC,0.14,VWS V13.00,2013-02-20 01:20:00,
2013-02-19 20:25:00,54.5,48.5,29.93,West,261,5.0,16.0,80,0.00,,SKC,0.14,VWS V13.00,2013-02-20 01:25:00,
2013-02-19 20:30:00,54.5,48.5,29.93,SW,215,8.0,13.0,80,0.00,,SKC,0.14,VWS V13.00,2013-02-20 01:30:00,
2013-02-19 20:35:00,54.4,48.4,29.93,SW,217,12.0,14.0,80,0.00,,SKC,0.14,VWS V13.00,2013-02-20 01:35:00,
2013-02-19 20:40:00,54.2,48.2,29.93,West,260,9.0,13.0,80,0.00,,SKC,0.14,VWS V13.00,2013-02-20 01:40:00,
2013-02-19 20:45:00,54.1,48.1,29.93,WSW,250,8.0,14.0,80,0.00,,SKC,0.14,VWS V13.00,2013-02-20 01:45:00,
2013-02-19 20:50:00,54.0,48.0,29.93,West,259,4.0,14.0,80,0.00,,SKC,0.14,VWS V13.00,2013-02-20 01:50:00,
2013-02-19 20:55:00,53.9,47.9,29.93,SW,218,5.0,13.0,80,0.00,,SKC,0.14,VWS V13.00,2013-02-20 01:55:00,
2013-02-19 21:00:00,53.8,48.1,29.93,WSW,240,8.0,13.0,81,0.00,,SKC,0.14,VWS V13.00,2013-02-20 02:00:00,
2013-02-19 21:05:00,53.7,48.0,29.93,WSW,246,10.0,12.0,81,0.00,,SKC,0.14,VWS V13.00,2013-02-20 02:05:00,
2013-02-19 21:10:00,53.6,47.9,29.93,WSW,242,8.0,11.0,81,0.00,,SKC,0.14,VWS V13.00,2013-02-20 02:10:00,
2013-02-19 21:15:00,53.5,47.8,29.93,West,262,10.0,13.0,81,0.00,,SKC,0.14,VWS V13.00,2013-02-20 02:15:00,
2013-02-19 21:20:00,53.5,47.8,29.94,WSW,252,8.0,12.0,81,0.00,,SKC,0.14,VWS V13.00,2013-02-20 02:20:00,
2013-02-19 21:25:00,53.5,47.8,29.94,SW,228,6.0,12.0,81,0.00,,SKC,0.14,VWS V13.00,2013-02-20 02:25:00,
2013-02-19 21:30:00,53.5,47.8,29.94,WSW,246,9.0,12.0,81,0.00,,SKC,0.14,VWS V13.00,2013-02-20 02:30:00,
2013-02-19 21:35:00,53.6,47.9,29.94,WSW,248,10.0,17.0,81,0.00,,SKC,0.14,VWS V13.00,2013-02-20 02:35:00,
2013-02-19 21:40:00,53.8,48.1,29.94,West,259,10.0,17.0,81,0.00,,SKC,0.14,VWS V13.00,2013-02-20 02:40:00,
2013-02-19 21:45:00,53.8,48.1,29.94,West,260,8.0,16.0,81,0.00,,SKC,0.14,VWS V13.00,2013-02-20 02:45:00,
2013-02-19 21:50:00,53.8,48.1,29.95,WSW,244,12.0,12.0,81,0.00,,SKC,0.14,VWS V13.00,2013-02-20 02:50:00,
2013-02-19 21:55:00,53.7,48.0,29.95,West,281,7.0,13.0,81,0.00,,SKC,0.14,VWS V13.00,2013-02-20 02:55:00,
2013-02-19 22:00:00,53.7,48.0,29.95,NNW,332,6.0,10.0,81,0.00,,SKC,0.14,VWS V13.00,2013-02-20 03:00:00,
2013-02-19 22:05:00,53.6,47.9,29.95,WSW,252,11.0,21.0,81,0.00,,SKC,0.14,VWS V13.00,2013-02-20 03:05:00,
2013-02-19 22:10:00,53.3,47.3,29.95,WSW,240,6.0,22.0,80,0.00,,SKC,0.14,VWS V13.00,2013-02-20 03:10:00,
2013-02-19 22:15:00,53.0,47.0,29.95,West,265,13.0,17.0,80,0.00,,SKC,0.14,VWS V13.00,2013-02-20 03:15:00,
2013-02-19 22:20:00,52.8,46.8,29.96,WNW,286,9.0,20.0,80,0.00,,SKC,0.14,VWS V13.00,2013-02-20 03:20:00,
2013-02-19 22:25:00,52.6,46.6,29.96,West,267,10.0,21.0,80,0.00,,SKC,0.14,VWS V13.00,2013-02-20 03:25:00,
2013-02-19 22:30:00,52.3,46.3,29.96,West,268,14.0,25.0,80,0.00,,SKC,0.14,VWS V13.00,2013-02-20 03:30:00,
2013-02-19 22:35:00,52.0,46.0,29.96,WNW,284,8.0,17.0,80,0.00,,SKC,0.14,VWS V13.00,2013-02-20 03:35:00,
2013-02-19 22:40:00,51.7,45.7,29.96,WNW,297,6.0,15.0,80,0.00,,SKC,0.14,VWS V13.00,2013-02-20 03:40:00,
2013-02-19 22:45:00,51.5,45.5,29.96,West,277,9.0,18.0,80,0.00,,SKC,0.14,VWS V13.00,2013-02-20 03:45:00,
2013-02-19 22:50:00,51.2,45.2,29.96,West,281,8.0,17.0,80,0.00,,SKC,0.14,VWS V13.00,2013-02-20 03:50:00,
2013-02-19 22:55:00,51.1,45.2,29.96,West,279,4.0,14.0,80,0.00,,SKC,0.14,VWS V13.00,2013-02-20 03:55:00,
2013-02-19 23:00:00,50.9,45.0,29.96,WSW,244,6.0,11.0,80,0.00,,SKC,0.14,VWS V13.00,2013-02-20 04:00:00,
2013-02-19 23:05:00,50.7,44.8,29.97,West,273,2.0,13.0,80,0.00,,SKC,0.14,VWS V13.00,2013-02-20 04:05:00,
2013-02-19 23:10:00,50.5,44.6,29.96,WSW,258,10.0,13.0,80,0.00,,SKC,0.14,VWS V13.00,2013-02-20 04:10:00,
2013-02-19 23:15:00,50.3,44.4,29.96,West,268,5.0,13.0,80,0.00,,SKC,0.14,VWS V13.00,2013-02-20 04:15:00,
2013-02-19 23:20:00,50.1,44.2,29.96,West,275,4.0,12.0,80,0.00,,SKC,0.14,VWS V13.00,2013-02-20 04:20:00,
2013-02-19 23:25:00,49.9,44.0,29.96,WNW,290,9.0,14.0,80,0.00,,SKC,0.14,VWS V13.00,2013-02-20 04:25:00,
2013-02-19 23:30:00,49.7,43.8,29.96,West,279,4.0,9.0,80,0.00,,SKC,0.14,VWS V13.00,2013-02-20 04:30:00,
2013-02-19 23:35:00,49.6,43.7,29.97,West,262,2.0,8.0,80,0.00,,SKC,0.14,VWS V13.00,2013-02-20 04:35:00,
2013-02-19 23:40:00,49.4,43.5,29.97,WSW,245,4.0,11.0,80,0.00,,SKC,0.14,VWS V13.00,2013-02-20 04:40:00,
2013-02-19 23:45:00,49.2,43.3,29.97,West,268,9.0,11.0,80,0.00,,SKC,0.14,VWS V13.00,2013-02-20 04:45:00,
2013-02-19 23:50:00,49.0,43.1,29.96,WNW,284,4.0,10.0,80,0.00,,SKC,0.14,VWS V13.00,2013-02-20 04:50:00,
2013-02-19 23:55:00,48.9,43.0,29.97,NW,314,8.0,10.0,80,0.00,,SKC,0.14,VWS V13.00,2013-02-20 04:55:00,